Location: Borbetomagus
(49.6328°N, 8.3592°E)
Time: 06:13:57
(UTC+00:00)

NOSS 7 (H) - Pass Details

Date: 19 May 2025
Orbit: 362 x 1534 km, 63.3° (Epoch: 22 June)

Event Time Altitude Azimuth Distance (km) Brightness Sun altitude
Rises 20:55:20 0° 314° (NW) 2,209 9.8 -13.1°
Reaches altitude 10° 20:57:16 10° 310° (NW) 1,368 8.2 -13.3°
Maximum altitude 21:00:09 57° 230° (SW) 464 4.4 -13.5°
Enters shadow 21:01:39 27° 161° (SSE) 833 5.2 -13.7°
